Powrót do katalogu

SINP-MSU-80 (Scorpion)

AktywnyMilitariaSSO
NORAD 67293·PAYLOAD·🇷🇺 Russia

Wystrzelony Dec 28, 2025 z Vostochny Cosmodrome

Loading…

Następne Przeloty (najbliższe 24 godziny)

TLE

ŚwieżeSource: Space-Track

Epoka: Sep 14, 2026, 10:20 UTC

1 67293U 25313AX  26257.43108816  .00002897  00000-0  12459-3 0  9994
2 67293  97.3867 330.8002 0011819  41.6236 318.5899 15.23377249 39544

Śledź SINP-MSU-80 (Scorpion) w czasie rzeczywistym z AllMySat

Download on the App Store